| time (UTC) | temp F | wind direction | speed knots | gust knots | rain 1hr in | rain 24hr in | rain mn in | humidity % | barometer mb |
| 20260509064509 | 52 | 229 | 5.2 | 7.0 | 0.00 | 0.00 | 0.00 | 99 | 1010.5 |
| 20260509064007 | 52 | 243 | 5.2 | 7.0 | 0.00 | 0.00 | 0.00 | 99 | 1010.6 |
| 20260509063502 | 52 | 241 | 6.1 | 7.0 | 0.00 | 0.00 | 0.00 | 99 | 1010.5 |
| 20260509063000 | 52 | 245 | 6.1 | 7.8 | 0.00 | 0.00 | 0.00 | 99 | 1010.7 |
| 20260509062457 | 52 | 216 | 7.0 | 7.0 | 0.00 | 0.00 | 0.00 | 99 | 1010.8 |
| 20260509061955 | 52 | 240 | 6.1 | 9.6 | 0.00 | 0.00 | 0.00 | 99 | 1010.6 |
| 20260509061451 | 52 | 226 | 7.0 | 7.8 | 0.00 | 0.00 | 0.00 | 99 | 1010.7 |
| 20260509060949 | 52 | 225 | 5.2 | 6.1 | 0.00 | 0.00 | 0.00 | 99 | 1010.8 |
| 20260509060446 | 52 | 238 | 6.1 | 7.0 | 0.00 | 0.00 | 0.00 | 99 | 1011.0 |
| 20260509055941 | 52 | 228 | 5.2 | 6.1 | 0.00 | 0.00 | 0.00 | 99 | 1011.1 |
| 20260509055437 | 52 | 234 | 6.1 | 7.0 | 0.00 | 0.00 | 0.00 | 99 | 1011.2 |
| 20260509054933 | 52 | 228 | 4.3 | 6.1 | 0.00 | 0.00 | 0.00 | 99 | 1011.2 |
| 20260509054430 | 52 | 221 | 6.1 | 7.0 | 0.00 | 0.00 | 0.00 | 99 | 1011.3 |
| 20260509053929 | 52 | 219 | 5.2 | 7.0 | 0.00 | 0.00 | 0.00 | 99 | 1011.0 |
| 20260509053426 | 52 | 223 | 4.3 | 7.0 | 0.00 | 0.00 | 0.00 | 99 | 1010.8 |
| 20260509052923 | 52 | 231 | 5.2 | 6.1 | 0.00 | 0.00 | 0.00 | 99 | 1010.8 |
| 20260509052421 | 52 | 226 | 3.5 | 5.2 | 0.00 | 0.00 | 0.00 | 99 | 1011.0 |
| 20260509051919 | 52 | 230 | 4.3 | 5.2 | 0.00 | 0.00 | 0.00 | 99 | 1011.3 |
| 20260509051416 | 52 | 228 | 3.5 | 4.3 | 0.00 | 0.00 | 0.00 | 99 | 1011.0 |
| 20260509050913 | 52 | 227 | 2.6 | 2.6 | 0.00 | 0.00 | 0.00 | 99 | 1011.1 |
| 20260509050410 | 52 | 238 | 2.6 | 2.6 | 0.00 | 0.00 | 0.00 | 99 | 1010.8 |
| 20260509045906 | 52 | 235 | 1.7 | 1.7 | 0.00 | 0.00 | 0.00 | 99 | 1011.0 |
| 20260509045403 | 52 | 225 | 2.6 | 2.6 | 0.00 | 0.00 | 0.00 | 99 | 1010.8 |
| 20260509044901 | 52 | 212 | 2.6 | 2.6 | 0.00 | 0.00 | 0.00 | 99 | 1011.0 |
| 20260509044358 | 52 | 218 | 4.3 | 5.2 | 0.00 | 0.00 | 0.00 | 99 | 1010.7 |
| 20260509043855 | 53 | 222 | 2.6 | 2.6 | 0.00 | 0.00 | 0.00 | 99 | 1011.1 |
| 20260509043350 | 53 | 238 | 2.6 | 2.6 | 0.00 | 0.00 | 0.00 | 99 | 1011.0 |
| 20260509042847 | 53 | 232 | 2.6 | 2.6 | 0.00 | 0.00 | 0.00 | 99 | 1011.1 |
| 20260509042343 | 53 | 240 | 2.6 | 2.6 | 0.00 | 0.00 | 0.00 | 99 | 1011.2 |
| 20260509041840 | 53 | 244 | 2.6 | 4.3 | 0.00 | 0.00 | 0.00 | 98 | 1010.8 |
| 20260509041337 | 53 | 238 | 2.6 | 2.6 | 0.00 | 0.00 | 0.00 | 98 | 1011.1 |
| 20260509040835 | 53 | 240 | 2.6 | 4.3 | 0.00 | 0.00 | 0.00 | 98 | 1011.0 |
| 20260509040332 | 53 | 246 | 2.6 | 4.3 | 0.00 | 0.00 | 0.00 | 98 | 1011.1 |
| 20260509035829 | 53 | 239 | 2.6 | 4.3 | 0.00 | 0.23 | 0.23 | 98 | 1011.1 |
| 20260509035327 | 53 | 249 | 3.5 | 4.3 | 0.00 | 0.23 | 0.23 | 98 | 1011.4 |
| 20260509034822 | 53 | 238 | 3.5 | 4.3 | 0.00 | 0.23 | 0.23 | 98 | 1011.1 |
| 20260509034321 | 53 | 242 | 3.5 | 4.3 | 0.00 | 0.23 | 0.23 | 98 | 1011.5 |
| 20260509033817 | 53 | 213 | 4.3 | 5.2 | 0.00 | 0.23 | 0.23 | 98 | 1011.2 |
| 20260509033314 | 53 | 261 | 2.6 | 4.3 | 0.00 | 0.23 | 0.23 | 98 | 1011.6 |
| 20260509032811 | 53 | 266 | 3.5 | 4.3 | 0.00 | 0.23 | 0.23 | 97 | 1011.6 |
| 20260509032308 | 53 | 256 | 2.6 | 2.6 | 0.00 | 0.23 | 0.23 | 97 | 1011.5 |
| 20260509031806 | 53 | 249 | 1.7 | 1.7 | 0.00 | 0.23 | 0.23 | 97 | 1011.1 |
| 20260509031303 | 53 | 249 | 0.0 | 0.0 | 0.00 | 0.23 | 0.23 | 97 | 1011.1 |
| 20260509030800 | 54 | 246 | 0.9 | 1.7 | 0.00 | 0.23 | 0.23 | 97 | 1011.3 |
| 20260509030259 | 54 | 253 | 1.7 | 2.6 | 0.00 | 0.23 | 0.23 | 97 | 1011.2 |
| 20260509025755 | 54 | 254 | 3.5 | 4.3 | 0.00 | 0.23 | 0.23 | 97 | 1011.2 |
| 20260509025250 | 54 | 251 | 3.5 | 5.2 | 0.00 | 0.23 | 0.23 | 96 | 1011.3 |
| 20260509024746 | 54 | 229 | 5.2 | 7.0 | 0.00 | 0.23 | 0.23 | 96 | 1011.2 |
| 20260509024242 | 54 | 235 | 4.3 | 5.2 | 0.00 | 0.23 | 0.23 | 96 | 1011.5 |
| 20260509023740 | 54 | 238 | 4.3 | 5.2 | 0.00 | 0.23 | 0.23 | 96 | 1011.2 |
| 20260509023237 | 54 | 239 | 5.2 | 6.1 | 0.00 | 0.23 | 0.23 | 96 | 1011.2 |
| 20260509022733 | 54 | 255 | 4.3 | 6.1 | 0.00 | 0.23 | 0.23 | 96 | 1011.4 |
| 20260509022231 | 54 | 258 | 6.1 | 7.0 | 0.00 | 0.23 | 0.23 | 96 | 1011.1 |
| 20260509021727 | 54 | 249 | 4.3 | 6.1 | 0.00 | 0.23 | 0.23 | 96 | 1011.3 |
| 20260509021225 | 54 | 259 | 4.3 | 5.2 | 0.00 | 0.23 | 0.23 | 96 | 1011.4 |
| 20260509020723 | 55 | 239 | 5.2 | 6.1 | 0.00 | 0.23 | 0.23 | 96 | 1011.3 |
| 20260509020219 | 55 | 223 | 4.3 | 6.1 | 0.00 | 0.23 | 0.23 | 96 | 1011.3 |
| 20260509015718 | 55 | 239 | 5.2 | 5.2 | 0.00 | 0.23 | 0.23 | 96 | 1011.2 |
| 20260509015216 | 55 | 230 | 5.2 | 6.1 | 0.00 | 0.23 | 0.23 | 96 | 1011.3 |
| 20260509014712 | 55 | 258 | 4.3 | 5.2 | 0.00 | 0.23 | 0.23 | 96 | 1011.0 |
| 20260509014209 | 55 | 237 | 4.3 | 6.1 | 0.00 | 0.23 | 0.23 | 96 | 1011.2 |
| 20260509013705 | 55 | 247 | 4.3 | 5.2 | 0.00 | 0.23 | 0.23 | 96 | 1011.2 |
| 20260509013201 | 55 | 231 | 5.2 | 6.1 | 0.00 | 0.23 | 0.23 | 96 | 1011.0 |
| 20260509012658 | 55 | 247 | 5.2 | 5.2 | 0.00 | 0.23 | 0.23 | 96 | 1011.5 |
| 20260509012154 | 55 | 236 | 6.1 | 7.0 | 0.00 | 0.23 | 0.23 | 96 | 1011.2 |
| 20260509011652 | 55 | 254 | 4.3 | 7.8 | 0.00 | 0.23 | 0.23 | 96 | 1011.5 |
| 20260509011149 | 55 | 270 | 5.2 | 7.0 | 0.00 | 0.23 | 0.23 | 96 | 1011.1 |
| 20260509010647 | 55 | 228 | 4.3 | 6.1 | 0.00 | 0.23 | 0.23 | 96 | 1011.4 |
| 20260509010143 | 54 | 219 | 4.3 | 5.2 | 0.00 | 0.23 | 0.23 | 96 | 1011.4 |
| 20260509005641 | 55 | 230 | 3.5 | 4.3 | 0.00 | 0.23 | 0.23 | 96 | 1011.3 |
| 20260509005137 | 55 | 220 | 4.3 | 5.2 | 0.00 | 0.23 | 0.23 | 96 | 1011.3 |
| 20260509004633 | 54 | 229 | 4.3 | 5.2 | 0.00 | 0.23 | 0.23 | 95 | 1011.4 |
| 20260509004130 | 54 | 234 | 3.5 | 5.2 | 0.00 | 0.23 | 0.23 | 95 | 1011.4 |
| 20260509003629 | 55 | 235 | 3.5 | 5.2 | 0.00 | 0.23 | 0.23 | 95 | 1011.3 |
| 20260509003126 | 55 | 221 | 3.5 | 4.3 | 0.00 | 0.23 | 0.23 | 94 | 1011.3 |
| 20260509002623 | 55 | 241 | 4.3 | 5.2 | 0.00 | 0.23 | 0.23 | 94 | 1011.4 |
| 20260509002120 | 55 | 229 | 4.3 | 6.1 | 0.00 | 0.23 | 0.23 | 94 | 1011.3 |
| 20260509001618 | 55 | 243 | 3.5 | 5.2 | 0.00 | 0.23 | 0.23 | 94 | 1011.2 |
| 20260509001113 | 55 | 239 | 4.3 | 6.1 | 0.00 | 0.23 | 0.23 | 94 | 1011.7 |
| 20260509000612 | 55 | 223 | 4.3 | 6.1 | 0.00 | 0.23 | 0.23 | 93 | 1011.4 |
| 20260509000108 | 55 | 235 | 4.3 | 7.0 | 0.00 | 0.23 | 0.23 | 93 | 1011.2 |
| 20260508235606 | 55 | 228 | 5.2 | 7.8 | 0.00 | 0.23 | 0.23 | 93 | 1011.4 |
| 20260508235102 | 55 | 232 | 5.2 | 7.0 | 0.00 | 0.23 | 0.23 | 92 | 1011.3 |
| 20260508234559 | 55 | 233 | 5.2 | 8.7 | 0.00 | 0.23 | 0.23 | 92 | 1011.3 |
| 20260508234056 | 55 | 242 | 4.3 | 5.2 | 0.00 | 0.23 | 0.23 | 92 | 1011.4 |
| 20260508233555 | 55 | 218 | 5.2 | 7.0 | 0.00 | 0.23 | 0.23 | 92 | 1011.4 |
| 20260508233052 | 55 | 242 | 7.0 | 7.8 | 0.00 | 0.23 | 0.23 | 91 | 1011.4 |
| 20260508232549 | 55 | 263 | 4.3 | 5.2 | 0.00 | 0.23 | 0.23 | 92 | 1011.5 |
| 20260508232046 | 55 | 241 | 4.3 | 6.1 | 0.00 | 0.23 | 0.23 | 91 | 1011.4 |
| 20260508231544 | 55 | 244 | 5.2 | 6.1 | 0.00 | 0.23 | 0.23 | 91 | 1011.5 |
| 20260508231041 | 55 | 237 | 5.2 | 6.1 | 0.00 | 0.23 | 0.23 | 92 | 1011.5 |
| 20260508230537 | 55 | 228 | 4.3 | 6.1 | 0.00 | 0.23 | 0.23 | 92 | 1011.6 |
| 20260508230034 | 55 | 257 | 6.1 | 7.0 | 0.00 | 0.23 | 0.23 | 93 | 1011.5 |
| 20260508225531 | 55 | 233 | 6.1 | 7.8 | 0.00 | 0.23 | 0.23 | 94 | 1011.7 |
| 20260508225028 | 55 | 220 | 5.2 | 6.1 | 0.00 | 0.23 | 0.23 | 94 | 1011.7 |
| 20260508224526 | 55 | 231 | 5.2 | 7.0 | 0.00 | 0.23 | 0.23 | 94 | 1011.6 |
| 20260508224023 | 55 | 243 | 5.2 | 7.0 | 0.00 | 0.23 | 0.23 | 94 | 1011.7 |
| 20260508223520 | 56 | 245 | 4.3 | 6.1 | 0.00 | 0.23 | 0.23 | 94 | 1011.5 |
| 20260508223018 | 56 | 252 | 4.3 | 7.0 | 0.00 | 0.23 | 0.23 | 94 | 1011.5 |
| 20260508222515 | 56 | 232 | 7.0 | 7.8 | 0.00 | 0.23 | 0.23 | 94 | 1011.5 |
| 20260508222012 | 56 | 225 | 6.1 | 7.8 | 0.00 | 0.23 | 0.23 | 94 | 1011.7 |
| 20260508221508 | 56 | 217 | 5.2 | 7.0 | 0.00 | 0.23 | 0.23 | 95 | 1011.7 |
| 20260508221004 | 56 | 230 | 4.3 | 6.1 | 0.00 | 0.23 | 0.23 | 95 | 1011.7 |
| 20260508220500 | 56 | 244 | 4.3 | 6.1 | 0.00 | 0.23 | 0.23 | 94 | 1011.7 |
| 20260508215956 | 56 | 247 | 4.3 | 5.2 | 0.00 | 0.23 | 0.23 | 94 | 1011.9 |
| 20260508215454 | 56 | 236 | 4.3 | 5.2 | 0.00 | 0.23 | 0.23 | 95 | 1011.8 |
| 20260508214950 | 55 | 252 | 6.1 | 7.0 | 0.00 | 0.23 | 0.23 | 95 | 1011.5 |
| 20260508214448 | 56 | 221 | 5.2 | 7.0 | 0.00 | 0.23 | 0.23 | 96 | 1011.6 |
| 20260508213944 | 55 | 243 | 7.0 | 7.8 | 0.00 | 0.23 | 0.23 | 97 | 1011.5 |
| 20260508213442 | 55 | 228 | 5.2 | 6.1 | 0.00 | 0.23 | 0.23 | 97 | 1011.6 |
| 20260508212937 | 55 | 228 | 5.2 | 7.0 | 0.00 | 0.23 | 0.23 | 97 | 1011.4 |
| 20260508212434 | 55 | 227 | 4.3 | 5.2 | 0.00 | 0.23 | 0.23 | 98 | 1011.6 |
| 20260508211930 | 55 | 227 | 5.2 | 6.1 | 0.00 | 0.23 | 0.23 | 97 | 1011.4 |
| 20260508211425 | 55 | 229 | 3.5 | 4.3 | 0.00 | 0.23 | 0.23 | 98 | 1011.4 |
| 20260508210923 | 54 | 234 | 3.5 | 6.1 | 0.00 | 0.23 | 0.23 | 97 | 1011.7 |
| 20260508210419 | 54 | 227 | 4.3 | 7.0 | 0.00 | 0.23 | 0.23 | 97 | 1011.7 |
| 20260508205915 | 55 | 247 | 4.3 | 6.1 | 0.00 | 0.23 | 0.23 | 97 | 1012.0 |
| 20260508205413 | 54 | 232 | 6.1 | 7.8 | 0.00 | 0.23 | 0.23 | 96 | 1012.1 |
| 20260508204909 | 54 | 239 | 7.8 | 8.7 | 0.07 | 0.23 | 0.23 | 96 | 1012.3 |
| 20260508204407 | 54 | 240 | 7.0 | 7.8 | 0.07 | 0.23 | 0.23 | 96 | 1012.2 |
| 20260508203902 | 55 | 242 | 7.8 | 8.7 | 0.07 | 0.22 | 0.22 | 95 | 1012.4 |
| 20260508203358 | 55 | 230 | 8.7 | 13.0 | 0.07 | 0.22 | 0.22 | 95 | 1012.2 |
| 20260508202854 | 55 | 236 | 7.8 | 11.3 | 0.00 | 0.20 | 0.20 | 94 | 1012.3 |
| 20260508202351 | 55 | 241 | 7.8 | 12.2 | 0.00 | 0.20 | 0.20 | 95 | 1012.2 |
| 20260508201849 | 55 | 246 | 7.0 | 8.7 | 0.00 | 0.20 | 0.20 | 95 | 1012.5 |
| 20260508201345 | 55 | 236 | 8.7 | 8.7 | 0.00 | 0.20 | 0.20 | 94 | 1012.6 |
| 20260508200841 | 55 | 248 | 7.8 | 7.8 | 0.00 | 0.20 | 0.20 | 94 | 1012.8 |
| 20260508200338 | 55 | 255 | 5.2 | 8.7 | 0.09 | 0.20 | 0.20 | 95 | 1012.7 |
| 20260508195834 | 55 | 244 | 6.1 | 7.0 | 0.14 | 0.19 | 0.19 | 95 | 1012.8 |
| 20260508195331 | 55 | 220 | 4.3 | 6.1 | 0.14 | 0.18 | 0.18 | 95 | 1012.8 |
| 20260508194827 | 55 | 244 | 2.6 | 2.6 | 0.14 | 0.17 | 0.17 | 95 | 1012.7 |
| 20260508194325 | 55 | 268 | 2.6 | 4.3 | 0.17 | 0.15 | 0.15 | 95 | 1013.0 |
| 20260508193821 | 56 | 269 | 0.9 | 0.9 | 0.24 | 0.14 | 0.14 | 94 | 1013.1 |
| 20260508193318 | 56 | 263 | 0.9 | 0.9 | 0.21 | 0.13 | 0.13 | 94 | 1013.0 |
| 20260508192814 | 56 | 263 | 0.0 | 0.9 | 0.00 | 0.09 | 0.09 | 93 | 1012.9 |
| 20260508192312 | 56 | 260 | 0.9 | 1.7 | 0.09 | 0.09 | 0.09 | 93 | 1013.0 |
| 20260508191809 | 56 | 271 | 0.9 | 1.7 | 0.09 | 0.09 | 0.09 | 92 | 1013.0 |
| 20260508191306 | 56 | 339 | 2.6 | 2.6 | 0.00 | 0.07 | 0.07 | 91 | 1013.2 |
| 20260508190803 | 57 | 264 | 1.7 | 4.3 | 0.00 | 0.07 | 0.07 | 88 | 1013.3 |
| 20260508190259 | 58 | 291 | 1.7 | 1.7 | 0.00 | 0.07 | 0.07 | 83 | 1013.0 |
| 20260508185756 | 58 | 266 | 1.7 | 5.2 | 0.00 | 0.07 | 0.07 | 82 | 1013.2 |
| 20260508185253 | 58 | 280 | 2.6 | 6.1 | 0.00 | 0.07 | 0.07 | 83 | 1013.1 |
| 20260508184750 | 58 | 279 | 2.6 | 4.3 | 0.07 | 0.07 | 0.07 | 83 | 1012.9 |
| 20260508184248 | 58 | 254 | 4.3 | 6.1 | 0.07 | 0.07 | 0.07 | 84 | 1013.1 |
| 20260508183744 | 58 | 264 | 7.0 | 9.6 | 0.00 | 0.06 | 0.06 | 83 | 1013.1 |
| 20260508183241 | 59 | 263 | 8.7 | 9.6 | 0.00 | 0.06 | 0.06 | 82 | 1013.2 |
| 20260508182737 | 60 | 240 | 7.8 | 13.0 | 0.00 | 0.06 | 0.06 | 80 | 1013.2 |
| 20260508182234 | 60 | 267 | 7.0 | 7.8 | 0.00 | 0.06 | 0.06 | 78 | 1013.0 |
| 20260508181729 | 60 | 272 | 5.2 | 7.0 | 0.00 | 0.06 | 0.06 | 77 | 1012.9 |
| 20260508181227 | 60 | 267 | 3.5 | 6.1 | 0.00 | 0.06 | 0.06 | 75 | 1013.0 |
| 20260508180723 | 61 | 271 | 4.3 | 8.7 | 0.00 | 0.06 | 0.06 | 76 | 1013.0 |
| 20260508180220 | 61 | 259 | 7.0 | 11.3 | 0.00 | 0.06 | 0.06 | 71 | 1013.1 |
| 20260508175716 | 62 | 248 | 7.8 | 11.3 | 0.00 | 0.06 | 0.06 | 69 | 1013.3 |
| 20260508175213 | 62 | 250 | 9.6 | 13.9 | 0.00 | 0.06 | 0.06 | 69 | 1013.2 |
| 20260508174712 | 63 | 265 | 7.8 | 8.7 | 0.00 | 0.06 | 0.06 | 69 | 1013.2 |
| 20260508174208 | 62 | 256 | 6.1 | 12.2 | 0.00 | 0.06 | 0.06 | 70 | 1013.2 |
| 20260508173704 | 63 | 280 | 8.7 | 11.3 | 0.00 | 0.06 | 0.06 | 66 | 1013.2 |
| 20260508173200 | 62 | 236 | 13.0 | 15.6 | 0.00 | 0.06 | 0.06 | 67 | 1013.3 |
| 20260508172658 | 63 | 263 | 10.4 | 12.2 | 0.00 | 0.06 | 0.06 | 67 | 1013.5 |
| 20260508172154 | 62 | 246 | 10.4 | 14.8 | 0.00 | 0.06 | 0.06 | 67 | 1013.5 |
| 20260508171651 | 63 | 249 | 9.6 | 12.2 | 0.00 | 0.06 | 0.06 | 68 | 1013.7 |
| 20260508171147 | 63 | 282 | 7.8 | 12.2 | 0.00 | 0.06 | 0.06 | 70 | 1013.8 |
| 20260508170644 | 62 | 250 | 6.1 | 7.8 | 0.00 | 0.06 | 0.06 | 70 | 1013.6 |
| 20260508170142 | 61 | 237 | 7.8 | 9.6 | 0.00 | 0.06 | 0.06 | 71 | 1013.5 |
| 20260508165639 | 61 | 252 | 3.5 | 6.1 | 0.00 | 0.06 | 0.06 | 70 | 1013.7 |
| 20260508165136 | 61 | 226 | 7.0 | 7.8 | 0.00 | 0.06 | 0.06 | 72 | 1013.9 |
| 20260508164632 | 60 | 237 | 6.1 | 7.8 | 0.00 | 0.06 | 0.06 | 73 | 1013.8 |
| 20260508164129 | 60 | 220 | 6.1 | 7.8 | 0.00 | 0.06 | 0.06 | 73 | 1014.0 |
| 20260508163627 | 59 | 218 | 5.2 | 6.1 | 0.00 | 0.06 | 0.06 | 74 | 1014.1 |
| 20260508163124 | 58 | 213 | 4.3 | 6.1 | 0.00 | 0.06 | 0.06 | 73 | 1014.4 |
| 20260508162620 | 58 | 236 | 4.3 | 6.1 | 0.00 | 0.06 | 0.06 | 72 | 1014.4 |
| 20260508162118 | 58 | 230 | 3.5 | 4.3 | 0.00 | 0.06 | 0.06 | 75 | 1014.6 |
| 20260508161614 | 58 | 235 | 4.3 | 7.8 | 0.00 | 0.06 | 0.06 | 74 | 1014.6 |
| 20260508161112 | 57 | 217 | 3.5 | 6.1 | 0.00 | 0.06 | 0.06 | 75 | 1014.8 |
| 20260508160610 | 57 | 226 | 6.1 | 7.0 | 0.00 | 0.06 | 0.06 | 73 | 1014.9 |
| 20260508160107 | 57 | 256 | 5.2 | 7.0 | 0.00 | 0.06 | 0.06 | 73 | 1014.7 |
| 20260508155604 | 57 | 238 | 4.3 | 6.1 | 0.00 | 0.06 | 0.06 | 74 | 1014.6 |
| 20260508155101 | 57 | 261 | 7.0 | 7.8 | 0.00 | 0.06 | 0.06 | 74 | 1015.0 |
| 20260508154557 | 58 | 244 | 4.3 | 7.0 | 0.00 | 0.06 | 0.06 | 72 | 1014.8 |
| 20260508154054 | 58 | 272 | 7.0 | 8.7 | 0.00 | 0.06 | 0.06 | 72 | 1014.8 |
| 20260508153551 | 59 | 243 | 7.8 | 9.6 | 0.00 | 0.06 | 0.06 | 73 | 1015.0 |
| 20260508153047 | 58 | 263 | 7.8 | 11.3 | 0.00 | 0.06 | 0.06 | 72 | 1015.0 |
| 20260508152545 | 58 | 239 | 7.0 | 8.7 | 0.00 | 0.06 | 0.06 | 72 | 1014.9 |
| 20260508152040 | 59 | 221 | 7.8 | 11.3 | 0.00 | 0.06 | 0.06 | 72 | 1014.9 |
| 20260508151537 | 58 | 226 | 6.1 | 7.0 | 0.00 | 0.06 | 0.06 | 73 | 1014.9 |
| 20260508151034 | 57 | 243 | 6.1 | 7.8 | 0.00 | 0.06 | 0.06 | 73 | 1014.9 |
| 20260508150531 | 58 | 225 | 6.1 | 7.8 | 0.00 | 0.06 | 0.06 | 76 | 1015.0 |
| 20260508150027 | 56 | 244 | 5.2 | 7.0 | 0.00 | 0.06 | 0.06 | 75 | 1014.9 |
| 20260508145524 | 56 | 255 | 5.2 | 7.0 | 0.00 | 0.06 | 0.06 | 74 | 1015.2 |
| 20260508145020 | 56 | 222 | 6.1 | 7.0 | 0.00 | 0.06 | 0.06 | 75 | 1015.5 |
| 20260508144518 | 55 | 243 | 7.0 | 8.7 | 0.00 | 0.06 | 0.06 | 74 | 1015.4 |
| 20260508144015 | 54 | 278 | 6.1 | 7.8 | 0.00 | 0.06 | 0.06 | 76 | 1015.5 |
| 20260508143513 | 55 | 235 | 6.1 | 8.7 | 0.00 | 0.06 | 0.06 | 77 | 1015.1 |
| 20260508143009 | 54 | 269 | 7.8 | 8.7 | 0.00 | 0.06 | 0.06 | 76 | 1015.2 |
| 20260508142506 | 54 | 266 | 8.7 | 9.6 | 0.00 | 0.06 | 0.06 | 76 | 1015.4 |
| 20260508142003 | 54 | 246 | 8.7 | 9.6 | 0.00 | 0.06 | 0.06 | 76 | 1015.4 |
| 20260508141459 | 54 | 238 | 7.8 | 9.6 | 0.00 | 0.06 | 0.06 | 76 | 1015.2 |
| 20260508140957 | 53 | 257 | 5.2 | 7.8 | 0.00 | 0.06 | 0.06 | 76 | 1015.6 |
| 20260508140454 | 54 | 247 | 7.8 | 9.6 | 0.00 | 0.06 | 0.06 | 76 | 1015.7 |
| 20260508135949 | 54 | 218 | 6.1 | 7.0 | 0.00 | 0.06 | 0.06 | 79 | 1015.6 |
| 20260508135446 | 52 | 241 | 5.2 | 8.7 | 0.00 | 0.06 | 0.06 | 77 | 1015.5 |
| 20260508134942 | 52 | 264 | 6.1 | 9.6 | 0.00 | 0.06 | 0.06 | 78 | 1015.8 |
| 20260508134439 | 52 | 251 | 5.2 | 7.0 | 0.00 | 0.06 | 0.06 | 78 | 1015.7 |
| 20260508133936 | 52 | 249 | 6.1 | 7.8 | 0.00 | 0.06 | 0.06 | 78 | 1016.0 |
| 20260508133434 | 52 | 240 | 6.1 | 8.7 | 0.00 | 0.06 | 0.06 | 78 | 1015.7 |
| 20260508132930 | 51 | 245 | 6.1 | 7.0 | 0.00 | 0.06 | 0.06 | 79 | 1016.0 |
| 20260508132428 | 51 | 242 | 5.2 | 9.6 | 0.00 | 0.06 | 0.06 | 78 | 1015.9 |
| 20260508131925 | 51 | 238 | 7.0 | 8.7 | 0.00 | 0.06 | 0.06 | 79 | 1015.7 |
| 20260508131420 | 51 | 236 | 7.0 | 8.7 | 0.00 | 0.06 | 0.06 | 79 | 1015.7 |
| 20260508130917 | 51 | 239 | 7.8 | 8.7 | 0.00 | 0.06 | 0.06 | 79 | 1015.6 |
| 20260508130414 | 51 | 223 | 6.1 | 7.8 | 0.00 | 0.06 | 0.06 | 79 | 1015.4 |
| 20260508125910 | 51 | 252 | 7.0 | 8.7 | 0.00 | 0.06 | 0.06 | 80 | 1015.7 |
| 20260508125406 | 51 | 240 | 6.1 | 8.7 | 0.00 | 0.06 | 0.06 | 80 | 1015.5 |
| 20260508124904 | 51 | 248 | 6.1 | 8.7 | 0.00 | 0.06 | 0.06 | 80 | 1015.6 |
| 20260508124401 | 51 | 221 | 7.0 | 7.8 | 0.00 | 0.06 | 0.06 | 80 | 1015.7 |
| 20260508123859 | 51 | 248 | 6.1 | 7.0 | 0.00 | 0.06 | 0.06 | 80 | 1015.9 |
| 20260508123357 | 51 | 244 | 5.2 | 7.0 | 0.00 | 0.06 | 0.06 | 80 | 1015.8 |
| 20260508122853 | 51 | 240 | 5.2 | 6.1 | 0.00 | 0.06 | 0.06 | 80 | 1015.7 |
| 20260508122350 | 51 | 231 | 7.0 | 7.8 | 0.00 | 0.06 | 0.06 | 81 | 1015.7 |
| 20260508121847 | 51 | 237 | 5.2 | 6.1 | 0.00 | 0.06 | 0.06 | 81 | 1015.7 |
| 20260508121346 | 51 | 225 | 7.0 | 7.0 | 0.00 | 0.06 | 0.06 | 81 | 1015.8 |
| 20260508120843 | 51 | 230 | 5.2 | 7.0 | 0.00 | 0.06 | 0.06 | 80 | 1015.5 |
| 20260508120341 | 51 | 250 | 6.1 | 7.0 | 0.00 | 0.06 | 0.06 | 80 | 1015.6 |
| 20260508115838 | 50 | 237 | 6.1 | 7.0 | 0.00 | 0.06 | 0.06 | 81 | 1015.4 |
| 20260508115336 | 50 | 220 | 4.3 | 6.1 | 0.00 | 0.06 | 0.06 | 80 | 1015.6 |
| 20260508114832 | 50 | 237 | 4.3 | 8.7 | 0.00 | 0.06 | 0.06 | 80 | 1015.5 |
| 20260508114329 | 51 | 239 | 4.3 | 7.8 | 0.00 | 0.06 | 0.06 | 80 | 1015.7 |
| 20260508113826 | 51 | 245 | 5.2 | 7.0 | 0.00 | 0.06 | 0.06 | 80 | 1015.7 |
| 20260508113324 | 51 | 245 | 6.1 | 7.0 | 0.00 | 0.06 | 0.06 | 80 | 1015.6 |
| 20260508112820 | 51 | 221 | 7.8 | 8.7 | 0.00 | 0.06 | 0.06 | 80 | 1015.1 |
| 20260508112317 | 50 | 237 | 7.8 | 9.6 | 0.00 | 0.06 | 0.06 | 80 | 1015.1 |
| 20260508111814 | 50 | 251 | 6.1 | 8.7 | 0.00 | 0.06 | 0.06 | 82 | 1015.5 |
| 20260508111311 | 50 | 238 | 6.1 | 7.0 | 0.00 | 0.06 | 0.06 | 82 | 1015.5 |
| 20260508110808 | 50 | 240 | 7.8 | 7.8 | 0.00 | 0.06 | 0.06 | 83 | 1015.1 |
| 20260508110306 | 50 | 249 | 5.2 | 7.0 | 0.00 | 0.06 | 0.06 | 83 | 1015.4 |
| 20260508105805 | 50 | 231 | 5.2 | 6.1 | 0.00 | 0.06 | 0.06 | 83 | 1015.2 |
| 20260508105305 | 49 | 245 | 5.2 | 7.0 | 0.00 | 0.06 | 0.06 | 85 | 1015.4 |
| 20260508104759 | 49 | 250 | 6.1 | 7.0 | 0.00 | 0.06 | 0.06 | 86 | 1015.5 |
| 20260508104256 | 48 | 249 | 3.5 | 5.2 | 0.00 | 0.06 | 0.06 | 87 | 1015.5 |
| 20260508103753 | 48 | 243 | 2.6 | 4.3 | 0.00 | 0.06 | 0.06 | 88 | 1015.1 |
| 20260508103250 | 48 | 250 | 2.6 | 4.3 | 0.00 | 0.06 | 0.06 | 89 | 1015.5 |
| 20260508102747 | 48 | 258 | 2.6 | 2.6 | 0.00 | 0.06 | 0.06 | 89 | 1015.6 |
| 20260508102246 | 48 | 250 | 2.6 | 4.3 | 0.00 | 0.06 | 0.06 | 89 | 1015.5 |
| 20260508101743 | 48 | 250 | 3.5 | 4.3 | 0.00 | 0.06 | 0.06 | 89 | 1015.6 |
| 20260508101240 | 48 | 252 | 4.3 | 5.2 | 0.00 | 0.06 | 0.06 | 88 | 1015.6 |
| 20260508100738 | 48 | 247 | 4.3 | 5.2 | 0.07 | 0.06 | 0.06 | 88 | 1015.7 |
| 20260508100235 | 48 | 253 | 4.3 | 6.1 | 0.07 | 0.06 | 0.06 | 87 | 1015.6 |
| 20260508095731 | 48 | 259 | 4.3 | 6.1 | 0.00 | 0.05 | 0.05 | 87 | 1015.8 |
| 20260508095229 | 48 | 255 | 6.1 | 7.0 | 0.00 | 0.05 | 0.05 | 86 | 1015.8 |
| 20260508094725 | 49 | 251 | 6.1 | 7.0 | 0.00 | 0.05 | 0.05 | 85 | 1015.6 |
| 20260508094222 | 48 | 245 | 7.0 | 7.8 | 0.00 | 0.05 | 0.05 | 85 | 1015.5 |
| 20260508093720 | 48 | 238 | 5.2 | 6.1 | 0.00 | 0.05 | 0.05 | 86 | 1015.5 |
| 20260508093218 | 48 | 214 | 4.3 | 6.1 | 0.00 | 0.05 | 0.05 | 86 | 1015.4 |
| 20260508092714 | 48 | 242 | 5.2 | 6.1 | 0.00 | 0.05 | 0.05 | 88 | 1015.5 |
| 20260508092212 | 48 | 265 | 3.5 | 4.3 | 0.00 | 0.05 | 0.05 | 89 | 1015.8 |
| 20260508091710 | 48 | 252 | 4.3 | 5.2 | 0.07 | 0.05 | 0.05 | 89 | 1015.9 |
| 20260508091207 | 48 | 261 | 4.3 | 6.1 | 0.07 | 0.05 | 0.05 | 89 | 1016.0 |
| 20260508090704 | 48 | 258 | 5.2 | 7.0 | 0.00 | 0.04 | 0.04 | 89 | 1016.0 |
| 20260508090202 | 48 | 259 | 6.1 | 7.0 | 0.00 | 0.04 | 0.04 | 88 | 1016.1 |
| 20260508085657 | 48 | 263 | 7.8 | 11.3 | 0.07 | 0.04 | 0.04 | 88 | 1016.1 |
| 20260508085155 | 48 | 242 | 7.0 | 7.8 | 0.07 | 0.04 | 0.04 | 88 | 1016.0 |
| 20260508084651 | 49 | 255 | 4.3 | 4.3 | 0.09 | 0.03 | 0.03 | 87 | 1016.1 |
| 20260508084148 | 49 | 267 | 1.7 | 1.7 | 0.17 | 0.03 | 0.03 | 86 | 1016.4 |
| 20260508083646 | 50 | 278 | 3.5 | 5.2 | 0.07 | 0.01 | 0.01 | 83 | 1016.3 |
| 20260508083144 | 50 | 271 | 4.3 | 6.1 | 0.00 | 0.00 | 0.00 | 81 | 1015.9 |
| 20260508082638 | 50 | 249 | 5.2 | 6.1 | 0.00 | 0.00 | 0.00 | 79 | 1015.4 |
| 20260508082136 | 50 | 248 | 6.1 | 9.6 | 0.00 | 0.00 | 0.00 | 79 | 1015.4 |
| 20260508081633 | 51 | 258 | 6.1 | 7.8 | 0.00 | 0.00 | 0.00 | 79 | 1015.4 |
| 20260508081129 | 50 | 252 | 6.1 | 7.8 | 0.00 | 0.00 | 0.00 | 79 | 1015.2 |
| 20260508080627 | 50 | 255 | 7.8 | 8.7 | 0.00 | 0.00 | 0.00 | 80 | 1015.2 |
| 20260508080125 | 51 | 243 | 9.6 | 11.3 | 0.00 | 0.00 | 0.00 | 79 | 1015.0 |
| 20260508075621 | 51 | 243 | 7.8 | 11.3 | 0.00 | 0.00 | 0.00 | 78 | 1015.0 |
| 20260508075118 | 51 | 257 | 7.8 | 8.7 | 0.00 | 0.00 | 0.00 | 78 | 1015.1 |
| 20260508074616 | 52 | 267 | 7.8 | 11.3 | 0.00 | 0.00 | 0.00 | 76 | 1015.2 |
| 20260508074112 | 51 | 259 | 9.6 | 11.3 | 0.00 | 0.00 | 0.00 | 78 | 1015.1 |
| 20260508073610 | 51 | 276 | 7.8 | 11.3 | 0.00 | 0.00 | 0.00 | 79 | 1015.4 |
| 20260508073107 | 51 | 257 | 8.7 | 12.2 | 0.00 | 0.00 | 0.00 | 80 | 1015.2 |
| 20260508071523 | 51 | 265 | 11.3 | 13.0 | 0.00 | 0.00 | 0.00 | 76 | 1015.6 |
| 20260508071021 | 51 | 265 | 11.3 | 13.0 | 0.00 | 0.00 | 0.00 | 76 | 1015.6 |
| 20260508070518 | 51 | 245 | 7.8 | 11.3 | 0.00 | 0.00 | 0.00 | 75 | 1015.9 |
| 20260508070016 | 51 | 249 | 6.1 | 9.6 | 0.00 | 0.00 | 0.00 | 76 | 1015.6 |
| 20260508065514 | 51 | 263 | 6.1 | 8.7 | 0.00 | 0.00 | 0.00 | 76 | 1015.9 |
| 20260508065012 | 50 | 263 | 6.1 | 11.3 | 0.00 | 0.00 | 0.00 | 77 | 1015.8 |